TimeEDT,TemperatureF,Dew PointF,Humidity,Sea Level PressureIn,VisibilityMPH,Wind Direction,Wind SpeedMPH,Gust SpeedMPH,PrecipitationIn,Events,Conditions,WindDirDegrees,DateUTC
12:51 AM,63.0,50.0,63,30.20,10.0,East,3.5,-,N/A,,Clear,90,2013-05-02 04:51:00
1:51 AM,63.0,48.9,60,30.21,10.0,ESE,6.9,-,N/A,,Clear,120,2013-05-02 05:51:00
2:51 AM,64.0,46.0,52,30.20,10.0,ESE,4.6,-,N/A,,Clear,120,2013-05-02 06:51:00
3:51 AM,61.0,46.9,60,30.20,10.0,East,3.5,-,N/A,,Clear,100,2013-05-02 07:51:00
4:51 AM,59.0,46.9,64,30.20,10.0,ESE,3.5,-,N/A,,Clear,110,2013-05-02 08:51:00
5:51 AM,57.0,48.0,72,30.21,10.0,ESE,4.6,-,N/A,,Clear,110,2013-05-02 09:51:00
6:51 AM,57.0,48.0,72,30.22,10.0,East,5.8,-,N/A,,Clear,100,2013-05-02 10:51:00
7:51 AM,57.9,48.9,72,30.23,10.0,ESE,4.6,-,N/A,,Clear,110,2013-05-02 11:51:00
8:51 AM,60.1,50.0,69,30.25,10.0,East,5.8,-,N/A,,Scattered Clouds,100,2013-05-02 12:51:00
9:51 AM,64.0,50.0,60,30.25,10.0,ESE,13.8,17.3,N/A,,Partly Cloudy,110,2013-05-02 13:51:00
10:51 AM,68.0,51.1,55,30.25,10.0,ESE,8.1,-,N/A,,Clear,110,2013-05-02 14:51:00
11:51 AM,71.1,52.0,51,30.24,10.0,Variable,5.8,17.3,N/A,,Scattered Clouds,0,2013-05-02 15:51:00
12:51 PM,72.0,53.1,51,30.23,10.0,SE,9.2,-,N/A,,Overcast,140,2013-05-02 16:51:00
1:51 PM,73.0,53.1,49,30.21,10.0,Variable,5.8,-,N/A,,Mostly Cloudy,0,2013-05-02 17:51:00
2:51 PM,73.9,53.1,48,30.19,10.0,SSW,5.8,-,N/A,,Partly Cloudy,200,2013-05-02 18:51:00
3:51 PM,75.9,54.0,46,30.17,10.0,Calm,Calm,-,N/A,,Mostly Cloudy,0,2013-05-02 19:51:00
4:51 PM,73.9,53.1,48,30.16,10.0,SSE,3.5,-,N/A,,Mostly Cloudy,150,2013-05-02 20:51:00
5:51 PM,75.9,53.1,45,30.14,10.0,Variable,3.5,-,N/A,,Scattered Clouds,0,2013-05-02 21:51:00
6:51 PM,73.9,53.1,48,30.13,10.0,Calm,Calm,-,N/A,,Overcast,0,2013-05-02 22:51:00
7:51 PM,72.0,54.0,53,30.12,10.0,Calm,Calm,-,N/A,,Overcast,0,2013-05-02 23:51:00
8:51 PM,68.0,55.9,65,30.12,10.0,East,3.5,-,N/A,,Scattered Clouds,90,2013-05-03 00:51:00
9:51 PM,68.0,55.0,63,30.13,10.0,ESE,5.8,-,N/A,,Overcast,120,2013-05-03 01:51:00
10:51 PM,69.1,52.0,54,30.13,10.0,SE,5.8,-,N/A,,Clear,140,2013-05-03 02:51:00
11:51 PM,66.9,51.1,57,30.13,10.0,SE,6.9,-,N/A,,Clear,140,2013-05-03 03:51:00